Location: Izdebno
(52.6670°N, 16.2170°E)
Time: 19:34:42
(UTC+02:00)

SR - Pass Details

Date: 28 February 2024
Orbit: 577 x 862 km, 66.7° (Epoch: 20 April)

Event Time Altitude Azimuth Distance (km) Brightness Sun altitude
Rises 22:02:04 0° 320° (NW) 3,275 ? -38.5°
Reaches altitude 10° 22:04:36 10° 323° (NW) 2,299 ? -38.7°
Enters shadow 22:06:16 20° 327° (NNW) 1,677 ? -38.9°
